This is the latest recevied weather packets stored in our database for station/object N4AR. If no packets are shown the sender has not sent any weather packets the latest 10 day(s).
| Time | Temp. | Humidity | Pressure | Rain* | Wind** | Luminosity | Snow |
|---|---|---|---|---|---|---|---|
| 1777943048 | 18.89° C | 47% | 1013.6 hPa | 0 mm | - | 0 W/m² | - |
| 1777942744 | 19.44° C | 46% | 1013.5 hPa | 0 mm | - | 0 W/m² | - |
| 1777942441 | 19.44° C | 45% | 1013.5 hPa | 0 mm | - | 0 W/m² | - |
| 1777942139 | 20° C | 46% | 1013.4 hPa | 0 mm | - | 0 W/m² | - |
| 1777941835 | 20° C | 43% | 1013.4 hPa | 0 mm | - | 0 W/m² | - |
| 1777941533 | 20.56° C | 43% | 1013.3 hPa | 0 mm | - | 0 W/m² | - |
| 1777941230 | 20.56° C | 41% | 1013 hPa | 0 mm | - | 0 W/m² | - |
| 1777940925 | 21.11° C | 41% | 1013 hPa | 0 mm | - | 0 W/m² | - |
| 1777940622 | 21.11° C | 41% | 1013 hPa | 0 mm | - | 0 W/m² | - |
| 1777940321 | 21.67° C | 40% | 1013.2 hPa | 0 mm | - | 0 W/m² | - |
| 1777940017 | 21.67° C | 40% | 1012.9 hPa | 0 mm | - | 0 W/m² | - |
| 1777939715 | 21.67° C | 39% | 1012.8 hPa | 0 mm | - | 1 W/m² | - |
| 1777939413 | 22.22° C | 39% | 1012.8 hPa | 0 mm | - | 1 W/m² | - |
| 1777939109 | 22.78° C | 37% | 1013.1 hPa | 0 mm | - | 2 W/m² | - |
| 1777938806 | 22.78° C | 36% | 1012.9 hPa | 0 mm | - | 5 W/m² | - |
| 1777938503 | 22.78° C | 36% | 1012.8 hPa | 0 mm | - | 8 W/m² | - |
| 1777938201 | 22.78° C | 36% | 1012.8 hPa | 0 mm | - | 10 W/m² | - |
| 1777937896 | 23.33° C | 35% | 1012.8 hPa | 0 mm | - | 14 W/m² | - |
| 1777937593 | 23.33° C | 35% | 1012.6 hPa | 0 mm | - | 18 W/m² | - |
| 1777937289 | 23.33° C | 35% | 1012.5 hPa | 0 mm | - | 21 W/m² | - |
| 1777936987 | 23.89° C | 35% | 1012.5 hPa | 0 mm | - | 23 W/m² | - |
| 1777936684 | 23.89° C | 34% | 1012.7 hPa | 0 mm | - | 24 W/m² | - |
| 1777936380 | 23.89° C | 34% | 1012.6 hPa | 0 mm | - | 23 W/m² | - |
| 1777936076 | 23.89° C | 34% | 1012.5 hPa | 0 mm | - | 24 W/m² | - |
| 1777935774 | 24.44° C | 33% | 1012.5 hPa | 0 mm | - | 28 W/m² | - |
* Rain latest hour (hover to see other rain measurements)
** Current wind speed in m/s (hover to see current wind gust speed)